Regional Weather Roundup
Issued by NWS

Home | Current Version | Previous Version | Text Only | Print | Product List | Glossary On
Versions: 1 2 3 4 5 6 7 8 9 10 11 12 13 14 15 16 17 18 19 20 21 22 23 24 25 26 27 28
000
ASUS45 KBOI 231310
RWRID

IDAHO REGIONAL WEATHER ROUNDUP
NATIONAL WEATHER SERVICE BOISE ID
700 AM MDT SAT SEP 23 2017

NOTE: "FAIR" INDICATES FEW OR NO CLOUDS BELOW 12000 FEET
WITH NO SIGNIFICANT WEATHER AND/OR OBSTRUCTIONS TO VISIBILITY

IDZ012-014-231400-
SOUTHWEST IDAHO


CITY           SKY/WX    TMP DP  RH WIND       PRES   REMARKS
BOISE          CLEAR     36  34  92 SW3       30.04R
CALDWELL       CLEAR     38  37  97 N3        30.05R
MOUNTAIN HOME  CLEAR     34  34 100 CALM      30.04R
$$

IDZ016-017-231400-
SOUTHCENTRAL IDAHO


CITY           SKY/WX    TMP DP  RH WIND       PRES   REMARKS
BURLEY         MOCLDY    33  31  92 CALM      30.02R
JEROME         CLOUDY    38  37  97 CALM      30.03R
TWIN FALLS     CLOUDY    38  35  89 S8        30.03R WCI  32
$$

IDZ019>023-231400-
SOUTHEAST IDAHO


CITY           SKY/WX    TMP DP  RH WIND       PRES   REMARKS
IDAHO FALLS    CLEAR     28  28 100 CALM      30.04R
POCATELLO      PTCLDY    36  34  92 CALM      30.03F
REXBURG        CLEAR     31  28  89 CALM      30.04R
$$

IDZ006-010-011-018-031-032-231400-
CENTRAL IDAHO MOUNTAINS


CITY           SKY/WX    TMP DP  RH WIND       PRES   REMARKS
MCCALL         CLEAR     29  27  92 CALM      30.01S FOG
HAILEY         MOCLDY    32  30  93 W7        30.03S WCI  26
STANLEY          N/A     31  30  96 CALM      30.04R
SALMON         CLOUDY    38  32  79 CALM      30.07R
CHALLIS        MOCLDY    34  33  96 NW3       30.03R
$$

IDZ002-004-006-007-026-231400-
NORTHERN IDAHO


CITY           SKY/WX    TMP DP  RH WIND       PRES   REMARKS
LEWISTON       CLOUDY    47  43  86 E8        30.07R
LOWELL           N/A     44  40  85 CALM      30.12S
COEUR D`ALENE  CLOUDY    45  41  86 S7        30.06R
MULLAN PASS    CLOUDY    31  28  89 CALM      30.03R
$$




USA.gov is the U.S. government's official web portal to all federal, state and local government web resources and services.